Tracking 30923 objects as of 1-Jul-2025
HD Live streaming from Space Station
objects crossing your sky now

STARLINK-5826

Track STARLINK-5826 now!
10-day predictions
STARLINK-5826 is classified as:


NORAD ID: 55782
Int'l Code: 2023-028AT
Perigee: 577.1 km
Apogee: 581.3 km
Inclination: 70.0 °
Period: 96.1 minutes
Semi major axis: 6950 km
RCS: Unknown
Launch date: March 3, 2023
Source: United States (US)
Launch site: AIR FORCE WESTERN TEST RANGE (AFWTR)
Your satellite tracking list
Your tracking list is empty




NASA's NSSDC Master Catalog

Two Line Element Set (TLE):
1 55782U 23028AT  25181.88405522  .00000507  00000-0  50317-4 0  9995
2 55782  69.9996 119.5287 0003086 262.6274  97.4534 14.98327569129307
Source of the keplerian elements: AFSPC